Weather History for Providence, RI

Change the Weather History Date:

Thursday, March 6, 2014

  Actual Average Record
Temperature  
Mean Temperature 21 °F 36 °F  
Max Temperature 30 °F 45 °F 65 °F (1935)
Min Temperature 12 °F 27 °F 1 °F (1948)
Degree Days  
Heating Degree Days 44 29  
Month to date heating degree days 242 178  
Since 1 July heating degree days 4514 4240  
Cooling Degree Days 0 0  
Month to date cooling degree days 0 0  
Year to date cooling degree days 0 0  
Moisture  
Dew Point 2 °F    
Average Humidity 50    
Maximum Humidity 73    
Minimum Humidity 27    
Precipitation  
Precipitation 0.00 in 0.14 in 1.92 in (1943)
Month to date precipitation T 0.86  
Year to date precipitation 8.40 8.01  
Snow  
Snow 0.00 in 0.20 in 5.60 in (1990)
Month to date snowfall 0.1 1.5  
Since 1 July snowfall 42.2 29.2  
Snow Depth 0.00 in    
Sea Level Pressure  
Sea Level Pressure 30.57 in    
Wind  
Wind Speed 8 mph (North)    
Max Wind Speed 20 mph    
Max Gust Speed 26 mph    
Visibility 10 miles    
Events      
T = Trace of Precipitation, MM = Missing Value Source: NWS Daily Summary

Daily Weather History Graph

Daily Weather History Graph

Search for Another Location

Airport:

Trip Planner

Search our weather history database for the weather conditions in past years. The results will help you decide how hot, cold, wet, or windy it might be!

Date:

Astronomy

Mar. 06, 2014 Rise Set
Actual Time 6:12 AM EST 5:42 PM EST
Civil Twilight 5:44 AM EST 6:09 PM EST
Nautical Twilight 5:12 AM EST 6:41 PM EST
Astronomical Twilight 4:40 AM EST 7:14 PM EST
Moon 9:13 AM EST (3/6) 11:50 PM EST (3/6)
Length of Visible Light 12h 24m
Length of Day
11h 29m
Waxing Crescent, 32% of the Moon is Illuminated
Mar 6
Waxing Crescent
Mar 8
First Quarter
Mar 16
Full
Mar 23
Last Quarter
Mar 30
New

Hourly Weather History & Observations

Time (EST) Temp. Windchill Dew Point Humidity Pressure Visibility Wind Dir Wind Speed Gust Speed Precip Events Conditions
12:51 AM 19.0 °F 4.0 °F 6.1 °F 57% 30.49 in 10.0 mi North 17.3 mph - N/A   Clear
1:51 AM 17.1 °F 4.3 °F 3.9 °F 56% 30.50 in 10.0 mi NNW 11.5 mph - N/A   Clear
2:51 AM 16.0 °F 2.3 °F 1.9 °F 54% 30.51 in 10.0 mi North 12.7 mph - N/A   Clear
3:51 AM 15.1 °F 0.5 °F -0.0 °F 51% 30.52 in 10.0 mi North 13.8 mph - N/A   Clear
4:51 AM 14.0 °F -2.5 °F -0.9 °F 52% 30.54 in 10.0 mi North 17.3 mph - N/A   Clear
5:51 AM 12.9 °F -2.2 °F -2.9 °F 49% 30.57 in 10.0 mi North 13.8 mph - N/A   Partly Cloudy
6:51 AM 12.9 °F -0.9 °F -4.0 °F 47% 30.60 in 10.0 mi North 11.5 mph - N/A   Partly Cloudy
7:51 AM 16.0 °F 2.3 °F -5.1 °F 39% 30.61 in 10.0 mi North 12.7 mph - N/A   Partly Cloudy
8:51 AM 19.0 °F 6.1 °F -5.1 °F 34% 30.63 in 10.0 mi NNE 12.7 mph - N/A   Partly Cloudy
9:51 AM 21.0 °F 9.9 °F -2.0 °F 36% 30.63 in 10.0 mi NNE 10.4 mph - N/A   Partly Cloudy
10:51 AM 24.1 °F 13.1 °F -5.1 °F 28% 30.62 in 10.0 mi North 11.5 mph - N/A   Partly Cloudy
11:51 AM 25.0 °F 14.8 °F -5.1 °F 27% 30.63 in 10.0 mi North 10.4 mph - N/A   Partly Cloudy
12:51 PM 27.0 °F 23.0 °F -2.9 °F 27% 30.60 in 10.0 mi Variable 3.5 mph - N/A   Partly Cloudy
1:51 PM 28.9 °F 20.4 °F -0.9 °F 28% 30.58 in 10.0 mi NNE 9.2 mph - N/A   Partly Cloudy
2:51 PM 30.0 °F 24.1 °F -0.0 °F 28% 30.56 in 10.0 mi NE 5.8 mph - N/A   Scattered Clouds
3:51 PM 30.0 °F 25.2 °F 3.0 °F 32% 30.56 in 10.0 mi NE 4.6 mph - N/A   Scattered Clouds
4:51 PM 28.9 °F 21.9 °F 6.1 °F 38% 30.55 in 10.0 mi ESE 6.9 mph - N/A   Partly Cloudy
5:51 PM 27.0 °F 21.6 °F 5.0 °F 39% 30.56 in 10.0 mi East 4.6 mph - N/A   Partly Cloudy
6:51 PM 26.1 °F - 7.0 °F 44% 30.57 in 10.0 mi Calm Calm - N/A   Clear
7:51 PM 24.1 °F - 9.0 °F 53% 30.57 in 10.0 mi Calm Calm - N/A   Clear
8:51 PM 23.0 °F 17.0 °F 10.9 °F 60% 30.58 in 10.0 mi SSW 4.6 mph - N/A   Partly Cloudy
9:51 PM 23.0 °F - 12.9 °F 65% 30.56 in 10.0 mi Calm Calm - N/A   Scattered Clouds
10:51 PM 19.9 °F - 12.0 °F 71% 30.54 in 10.0 mi Calm Calm - N/A   Scattered Clouds
11:51 PM 19.0 °F 13.9 °F 10.9 °F 71% 30.53 in 10.0 mi West 3.5 mph - N/A   Scattered Clouds